Regional Weather Roundup
Issued by NWS

Home | Current Version | Previous Version | Text Only | Print | Product List | Glossary Off
Versions: 1 2 3 4 5 6 7 8 9 10 11 12 13 14 15 16 17 18 19 20 21 22 23 24 25 26 27 28 29 30 31 32 33 34 35 36 37 38 39 40 41 42 43 44 45 46 47 48 49 50

613
ASUS44 KJAN 272303
RWRMS

MISSISSIPPI HOURLY WEATHER ROUNDUP
NATIONAL WEATHER SERVICE JACKSON MS
600 PM CDT FRI MAR 27 2015

NOTE: "FAIR: INDICATES FEW OR NO CLOUDS BELOW 12,000 FEET WITH NO
SIGNIFICANT WEATHER AND/OR OBSTRUCTIONS TO VISIBILITY.

MSZ001>002-007>008-010>013-018>021-025>028-034>036-280000-
NORTHWEST MISSISSIPPI

CITY           SKY/WX    TMP DP  RH WIND       PRES   REMARKS
CLARKSDALE     FAIR      46  39  76 N7        30.14S
CLEVELAND      FAIR      51  39  62 N14       30.12S
GREENWOOD      PTSUNNY   52  35  52 NW9       30.12R
GREENVILLE     SUNNY     53  35  50 N15       30.11R
OLIVE BRANCH   MOSUNNY   45  32  61 N14       30.11R
OXFORD         FAIR      43  39  87 NW9       30.11S
TUNICA         CLEAR     46  34  61 N12       30.13R
$$

MSZ003>006-009-014>017-022>024-029>033-037>039-280000-
NORTHEAST MISSISSIPPI

CITY           SKY/WX    TMP DP  RH WIND       PRES   REMARKS
COLUMBUS AFB   LGT RAIN  49  37  63 NW18      30.08R
CORINTH        MOCLDY    46  32  57 NW15G23   30.07R
GOLDN TRIANGLE PTSUNNY   52  34  50 NW12G18   30.06R
STARKVILLE     FAIR      50  34  53 W10G16    30.07R
TUPELO         CLOUDY    44  38  79 NW7       30.08R
$$

MSZ040-058-280000-
CENTRAL MISSISSIPPI

CITY           SKY/WX    TMP DP  RH WIND       PRES   REMARKS
JACKSON INTL   MOSUNNY   56  33  42 NW13G22   30.07R
JACKSON HAWKNS MOSUNNY   57  35  43 N7        30.08R
MERIDIAN KEY   PTSUNNY   56  32  40 NW14      30.05R
MERIDIAN NAS   NOT AVBL
RAYMOND        FAIR      59  54  82 VRB7G17   30.07R
VICKSBURG      LGT RAIN  58  40  51 N14G23    30.08R
$$

MSZ059>079-280000-
SOUTH MISSISSIPPI

CITY           SKY/WX    TMP DP  RH WIND       PRES   REMARKS
BROOKHAVEN     MOCLDY    63  43  48 N10       30.05R
HATTIESBURG    SUNNY     64  34  32 NW9G22    30.03R
MCCOMB         SUNNY     66  39  37 N9        30.02R
NATCHEZ        SUNNY     66  39  37 N13G21    30.03R
PINE BELT      MOSUNNY   63  34  34 N18G24    30.04R
$$

MSZ080>082-280000-
COASTAL MISSISSIPPI

CITY           SKY/WX    TMP DP  RH WIND       PRES   REMARKS
BILOXI         SUNNY     67  36  31 NW13      29.98R
PASCAGOULA     SUNNY     67  34  29 NW9       29.98R
GULFPORT       SUNNY     67  35  30 NW16G25   29.98R
$$



USA.gov is the U.S. government's official web portal to all federal, state and local government web resources and services.